| time (UTC) | temp F | wind direction | speed MPH | gust MPH | rain 1hr in | rain 24hr in | rain mn in | humidity % | barometer mb |
| 20260504150600 | 69 | 327 | 9.0 | 15.0 | 0.00 | 0.00 | 0.00 | 44 | 1005.4 |
| 20260504141026 | 66 | 189 | 2.0 | 3.0 | 0.00 | 0.00 | 0.00 | 46 | 1004.3 |
| 20260504140522 | 65 | 183 | 1.0 | 7.0 | 0.00 | 0.00 | 0.00 | 49 | 1004.2 |
| 20260504130447 | 59 | 192 | 1.0 | 2.0 | 0.00 | 0.00 | 0.00 | 53 | 1004.6 |
| 20260504110334 | 48 | 195 | 3.0 | 3.0 | 0.00 | 0.00 | 0.00 | 70 | 1004.8 |
| 20260504100251 | 45 | 185 | 0.0 | 0.0 | 0.00 | 0.00 | 0.00 | 77 | 1005.5 |
| 20260504081645 | 48 | 189 | 0.0 | 0.0 | 0.00 | 0.00 | 0.00 | 73 | 1005.7 |
| 20260504081141 | 48 | 188 | 0.0 | 0.0 | 0.00 | 0.00 | 0.00 | 74 | 1005.8 |
| 20260504080637 | 47 | 188 | 0.0 | 0.0 | 0.00 | 0.00 | 0.00 | 74 | 1005.8 |
| 20260504080134 | 47 | 188 | 0.0 | 0.0 | 0.00 | 0.00 | 0.00 | 74 | 1006.0 |
| 20260504050450 | 54 | 185 | 0.0 | 0.0 | 0.00 | 0.00 | 0.00 | 60 | 1008.3 |
| 20260504045947 | 54 | 185 | 0.0 | 0.0 | 0.00 | 0.00 | 0.00 | 60 | 1008.3 |
| 20260504045443 | 54 | 184 | 0.0 | 0.0 | 0.00 | 0.00 | 0.00 | 59 | 1008.5 |
| 20260504044939 | 54 | 184 | 0.0 | 0.0 | 0.00 | 0.00 | 0.00 | 59 | 1008.6 |
| 20260504044437 | 54 | 184 | 0.0 | 0.0 | 0.00 | 0.00 | 0.00 | 59 | 1008.7 |
| 20260504043934 | 54 | 184 | 0.0 | 0.0 | 0.00 | 0.00 | 0.00 | 59 | 1008.6 |
| 20260504043431 | 55 | 185 | 0.0 | 0.0 | 0.00 | 0.00 | 0.00 | 58 | 1008.6 |
| 20260504042929 | 55 | 185 | 0.0 | 0.0 | 0.00 | 0.00 | 0.00 | 57 | 1008.6 |
| 20260504042425 | 56 | 185 | 0.0 | 0.0 | 0.00 | 0.00 | 0.00 | 57 | 1008.8 |
| 20260504041921 | 56 | 185 | 0.0 | 0.0 | 0.00 | 0.00 | 0.00 | 57 | 1008.9 |
| 20260504041418 | 56 | 185 | 0.0 | 0.0 | 0.00 | 0.00 | 0.00 | 56 | 1009.1 |
| 20260504040914 | 56 | 185 | 0.0 | 0.0 | 0.00 | 0.00 | 0.00 | 56 | 1009.1 |
| 20260504040412 | 57 | 184 | 0.0 | 0.0 | 0.00 | 0.00 | 0.00 | 55 | 1009.1 |
| 20260504035908 | 57 | 184 | 0.0 | 0.0 | 0.00 | 0.00 | 0.00 | 53 | 1009.1 |
| 20260504035405 | 59 | 184 | 0.0 | 0.0 | 0.00 | 0.00 | 0.00 | 52 | 1009.2 |
| 20260504034902 | 59 | 187 | 0.0 | 1.0 | 0.00 | 0.00 | 0.00 | 50 | 1009.2 |
| 20260504034359 | 59 | 187 | 1.0 | 2.0 | 0.00 | 0.00 | 0.00 | 50 | 1009.2 |
| 20260504033856 | 59 | 180 | 2.0 | 3.0 | 0.00 | 0.00 | 0.00 | 50 | 1009.1 |
| 20260504033354 | 58 | 185 | 1.0 | 1.0 | 0.00 | 0.00 | 0.00 | 51 | 1009.2 |
| 20260504032850 | 58 | 188 | 0.0 | 0.0 | 0.00 | 0.00 | 0.00 | 51 | 1009.1 |
| 20260504032347 | 58 | 189 | 0.0 | 0.0 | 0.00 | 0.00 | 0.00 | 52 | 1009.1 |
| 20260504031844 | 58 | 189 | 0.0 | 0.0 | 0.00 | 0.00 | 0.00 | 51 | 1009.2 |
| 20260504031341 | 59 | 189 | 0.0 | 0.0 | 0.00 | 0.00 | 0.00 | 51 | 1009.2 |
| 20260504030837 | 59 | 185 | 0.0 | 0.0 | 0.00 | 0.00 | 0.00 | 48 | 1009.3 |
| 20260504030335 | 60 | 183 | 0.0 | 0.0 | 0.00 | 0.00 | 0.00 | 48 | 1009.2 |
| 20260504025831 | 60 | 182 | 0.0 | 0.0 | 0.00 | 0.00 | 0.00 | 48 | 1009.3 |
| 20260504025328 | 60 | 192 | 0.0 | 0.0 | 0.00 | 0.00 | 0.00 | 46 | 1009.3 |
| 20260504024825 | 60 | 192 | 0.0 | 0.0 | 0.00 | 0.00 | 0.00 | 46 | 1009.3 |
| 20260504024321 | 60 | 192 | 0.0 | 0.0 | 0.00 | 0.00 | 0.00 | 46 | 1009.3 |
| 20260504023818 | 60 | 192 | 0.0 | 0.0 | 0.00 | 0.00 | 0.00 | 46 | 1009.3 |
| 20260504023315 | 61 | 192 | 0.0 | 0.0 | 0.00 | 0.00 | 0.00 | 46 | 1009.4 |
| 20260504022810 | 61 | 192 | 0.0 | 0.0 | 0.00 | 0.00 | 0.00 | 44 | 1009.4 |
| 20260504022308 | 61 | 192 | 0.0 | 0.0 | 0.00 | 0.00 | 0.00 | 45 | 1009.7 |
| 20260504021804 | 61 | 192 | 0.0 | 0.0 | 0.00 | 0.00 | 0.00 | 47 | 1009.4 |
| 20260504021302 | 61 | 192 | 0.0 | 0.0 | 0.00 | 0.00 | 0.00 | 45 | 1009.4 |
| 20260504020758 | 62 | 192 | 0.0 | 0.0 | 0.00 | 0.00 | 0.00 | 44 | 1009.6 |
| 20260504020255 | 63 | 192 | 0.0 | 0.0 | 0.00 | 0.00 | 0.00 | 44 | 1009.4 |
| 20260504015751 | 63 | 192 | 0.0 | 0.0 | 0.00 | 0.00 | 0.00 | 42 | 1009.7 |
| 20260504015248 | 64 | 192 | 0.0 | 0.0 | 0.00 | 0.00 | 0.00 | 42 | 1009.8 |
| 20260504014743 | 64 | 192 | 0.0 | 0.0 | 0.00 | 0.00 | 0.00 | 41 | 1009.8 |
| 20260504014240 | 65 | 192 | 0.0 | 0.0 | 0.00 | 0.00 | 0.00 | 38 | 1009.9 |
| 20260504013738 | 65 | 189 | 0.0 | 0.0 | 0.00 | 0.00 | 0.00 | 37 | 1009.9 |
| 20260504013235 | 66 | 190 | 0.0 | 0.0 | 0.00 | 0.00 | 0.00 | 37 | 1009.9 |
| 20260504012731 | 66 | 188 | 0.0 | 0.0 | 0.00 | 0.00 | 0.00 | 36 | 1009.9 |
| 20260504012230 | 66 | 192 | 0.0 | 2.0 | 0.00 | 0.00 | 0.00 | 36 | 1009.9 |
| 20260504011726 | 67 | 190 | 0.0 | 1.0 | 0.00 | 0.00 | 0.00 | 36 | 1010.1 |
| 20260504011223 | 68 | 185 | 0.0 | 1.0 | 0.00 | 0.00 | 0.00 | 35 | 1010.1 |
| 20260504010719 | 68 | 190 | 0.0 | 1.0 | 0.00 | 0.00 | 0.00 | 34 | 1010.2 |
| 20260504010215 | 69 | 188 | 0.0 | 1.0 | 0.00 | 0.00 | 0.00 | 33 | 1010.2 |
| 20260504005711 | 70 | 214 | 2.0 | 3.0 | 0.00 | 0.00 | 0.00 | 33 | 1010.2 |
| 20260504005209 | 71 | 183 | 1.0 | 2.0 | 0.00 | 0.00 | 0.00 | 32 | 1010.3 |
| 20260504004707 | 71 | 185 | 1.0 | 2.0 | 0.00 | 0.00 | 0.00 | 32 | 1010.5 |
| 20260504004203 | 71 | 204 | 1.0 | 4.0 | 0.00 | 0.00 | 0.00 | 32 | 1010.5 |
| 20260504003700 | 71 | 187 | 0.0 | 4.0 | 0.00 | 0.00 | 0.00 | 32 | 1010.5 |
| 20260504003157 | 72 | 252 | 3.0 | 6.0 | 0.00 | 0.00 | 0.00 | 30 | 1010.4 |
| 20260504002653 | 72 | 187 | 1.0 | 3.0 | 0.00 | 0.00 | 0.00 | 31 | 1010.4 |
| 20260504002151 | 73 | 203 | 2.0 | 4.0 | 0.00 | 0.00 | 0.00 | 31 | 1010.7 |
| 20260504001649 | 72 | 205 | 1.0 | 2.0 | 0.00 | 0.00 | 0.00 | 32 | 1010.7 |
| 20260504001144 | 73 | 187 | 2.0 | 6.0 | 0.00 | 0.00 | 0.00 | 32 | 1010.8 |
| 20260504000642 | 73 | 186 | 1.0 | 4.0 | 0.00 | 0.00 | 0.00 | 32 | 1010.7 |
| 20260504000139 | 73 | 222 | 2.0 | 6.0 | 0.00 | 0.00 | 0.00 | 32 | 1010.7 |
| 20260503235637 | 73 | 202 | 2.0 | 3.0 | 0.00 | 0.00 | 0.00 | 32 | 1010.8 |
| 20260503235133 | 73 | 176 | 2.0 | 3.0 | 0.00 | 0.00 | 0.00 | 33 | 1010.8 |
| 20260503234632 | 73 | 190 | 1.0 | 4.0 | 0.00 | 0.00 | 0.00 | 33 | 1010.9 |
| 20260503234129 | 73 | 268 | 2.0 | 4.0 | 0.00 | 0.00 | 0.00 | 33 | 1010.9 |
| 20260503233626 | 73 | 238 | 1.0 | 4.0 | 0.00 | 0.00 | 0.00 | 34 | 1011.0 |
| 20260503233122 | 73 | 197 | 1.0 | 4.0 | 0.00 | 0.00 | 0.00 | 34 | 1010.9 |
| 20260503232619 | 73 | 195 | 1.0 | 4.0 | 0.00 | 0.00 | 0.00 | 33 | 1011.0 |
| 20260503232116 | 73 | 189 | 2.0 | 3.0 | 0.00 | 0.00 | 0.00 | 30 | 1010.9 |
| 20260503231614 | 74 | 186 | 1.0 | 4.0 | 0.00 | 0.00 | 0.00 | 31 | 1011.0 |
| 20260503231110 | 74 | 185 | 2.0 | 6.0 | 0.00 | 0.00 | 0.00 | 30 | 1011.1 |
| 20260503230608 | 74 | 212 | 2.0 | 4.0 | 0.00 | 0.00 | 0.00 | 29 | 1011.1 |
| 20260503230104 | 74 | 233 | 1.0 | 3.0 | 0.00 | 0.00 | 0.00 | 34 | 1011.1 |
| 20260503225602 | 74 | 224 | 1.0 | 3.0 | 0.00 | 0.00 | 0.00 | 34 | 1011.1 |
| 20260503225056 | 74 | 201 | 1.0 | 3.0 | 0.00 | 0.00 | 0.00 | 30 | 1011.1 |
| 20260503224554 | 74 | 186 | 2.0 | 6.0 | 0.00 | 0.00 | 0.00 | 31 | 1011.2 |
| 20260503224052 | 75 | 301 | 5.0 | 7.0 | 0.00 | 0.00 | 0.00 | 30 | 1011.3 |
| 20260503223550 | 75 | 176 | 3.0 | 7.0 | 0.00 | 0.00 | 0.00 | 30 | 1011.4 |
| 20260503223045 | 73 | 195 | 1.0 | 1.0 | 0.00 | 0.00 | 0.00 | 33 | 1011.3 |
| 20260503222543 | 73 | 238 | 2.0 | 7.0 | 0.00 | 0.00 | 0.00 | 34 | 1011.3 |
| 20260503222041 | 74 | 260 | 3.0 | 8.0 | 0.00 | 0.00 | 0.00 | 32 | 1011.4 |
| 20260503221539 | 73 | 312 | 3.0 | 6.0 | 0.00 | 0.00 | 0.00 | 33 | 1011.4 |
| 20260503221036 | 73 | 299 | 5.0 | 11.0 | 0.00 | 0.00 | 0.00 | 31 | 1011.4 |
| 20260503220532 | 75 | 346 | 3.0 | 8.0 | 0.00 | 0.00 | 0.00 | 33 | 1011.5 |
| 20260503220029 | 76 | 193 | 2.0 | 4.0 | 0.00 | 0.00 | 0.00 | 31 | 1011.6 |
| 20260503215526 | 73 | 189 | 0.0 | 1.0 | 0.00 | 0.00 | 0.00 | 35 | 1011.8 |
| 20260503215023 | 74 | 178 | 0.0 | 2.0 | 0.00 | 0.00 | 0.00 | 30 | 1011.8 |
| 20260503214522 | 74 | 211 | 2.0 | 3.0 | 0.00 | 0.00 | 0.00 | 34 | 1012.0 |
| 20260503214018 | 73 | 279 | 3.0 | 8.0 | 0.00 | 0.00 | 0.00 | 34 | 1012.0 |
| 20260503213516 | 74 | 171 | 3.0 | 4.0 | 0.00 | 0.00 | 0.00 | 34 | 1011.9 |
| 20260503213013 | 74 | 326 | 2.0 | 3.0 | 0.00 | 0.00 | 0.00 | 36 | 1012.0 |
| 20260503212510 | 74 | 282 | 2.0 | 7.0 | 0.00 | 0.00 | 0.00 | 33 | 1012.2 |
| 20260503212008 | 74 | 282 | 2.0 | 4.0 | 0.00 | 0.00 | 0.00 | 31 | 1012.3 |
| 20260503211504 | 74 | 198 | 2.0 | 3.0 | 0.00 | 0.00 | 0.00 | 30 | 1012.3 |
| 20260503211000 | 74 | 192 | 0.0 | 4.0 | 0.00 | 0.00 | 0.00 | 32 | 1012.6 |
| 20260503210457 | 73 | 202 | 2.0 | 3.0 | 0.00 | 0.00 | 0.00 | 36 | 1012.5 |
| 20260503205957 | 73 | 301 | 6.0 | 9.0 | 0.00 | 0.00 | 0.00 | 33 | 1012.6 |
| 20260503205454 | 72 | 211 | 2.0 | 7.0 | 0.00 | 0.00 | 0.00 | 33 | 1012.6 |
| 20260503204950 | 73 | 324 | 6.0 | 9.0 | 0.00 | 0.00 | 0.00 | 34 | 1012.7 |
| 20260503204448 | 73 | 200 | 1.0 | 3.0 | 0.00 | 0.00 | 0.00 | 34 | 1012.9 |
| 20260503203944 | 73 | 273 | 4.0 | 6.0 | 0.00 | 0.00 | 0.00 | 35 | 1012.8 |
| 20260503203442 | 72 | 190 | 2.0 | 9.0 | 0.00 | 0.00 | 0.00 | 37 | 1012.8 |
| 20260503202939 | 71 | 18 | 6.0 | 10.0 | 0.00 | 0.00 | 0.00 | 35 | 1013.0 |
| 20260503202437 | 72 | 314 | 6.0 | 9.0 | 0.00 | 0.00 | 0.00 | 33 | 1013.1 |
| 20260503201936 | 72 | 326 | 6.0 | 10.0 | 0.00 | 0.00 | 0.00 | 34 | 1013.0 |
| 20260503201432 | 72 | 16 | 6.0 | 11.0 | 0.00 | 0.00 | 0.00 | 34 | 1012.9 |
| 20260503200930 | 72 | 298 | 3.0 | 9.0 | 0.00 | 0.00 | 0.00 | 34 | 1013.2 |
| 20260503200426 | 70 | 338 | 2.0 | 3.0 | 0.00 | 0.00 | 0.00 | 42 | 1013.1 |
| 20260503195922 | 70 | 341 | 3.0 | 4.0 | 0.00 | 0.00 | 0.00 | 34 | 1013.2 |
| 20260503195420 | 73 | 21 | 6.0 | 6.0 | 0.00 | 0.00 | 0.00 | 31 | 1013.1 |
| 20260503194916 | 73 | 243 | 3.0 | 4.0 | 0.00 | 0.00 | 0.00 | 37 | 1013.3 |
| 20260503194413 | 73 | 352 | 6.0 | 11.0 | 0.00 | 0.00 | 0.00 | 33 | 1013.2 |
| 20260503193909 | 73 | 298 | 6.0 | 9.0 | 0.00 | 0.00 | 0.00 | 35 | 1013.3 |
| 20260503193404 | 73 | 284 | 3.0 | 8.0 | 0.00 | 0.00 | 0.00 | 35 | 1013.5 |
| 20260503192900 | 71 | 9 | 7.0 | 9.0 | 0.00 | 0.00 | 0.00 | 34 | 1013.5 |
| 20260503192356 | 71 | 3 | 4.0 | 13.0 | 0.00 | 0.00 | 0.00 | 33 | 1013.5 |
| 20260503191853 | 70 | 343 | 6.0 | 13.0 | 0.00 | 0.00 | 0.00 | 39 | 1013.7 |
| 20260503191350 | 70 | 302 | 6.0 | 9.0 | 0.00 | 0.00 | 0.00 | 35 | 1013.6 |
| 20260503190846 | 72 | 314 | 9.0 | 16.0 | 0.00 | 0.00 | 0.00 | 33 | 1014.0 |
| 20260503190344 | 71 | 202 | 2.0 | 3.0 | 0.00 | 0.00 | 0.00 | 39 | 1013.6 |
| 20260503185841 | 71 | 348 | 5.0 | 10.0 | 0.00 | 0.00 | 0.00 | 36 | 1013.7 |
| 20260503185337 | 72 | 304 | 4.0 | 8.0 | 0.00 | 0.00 | 0.00 | 37 | 1013.8 |
| 20260503184836 | 72 | 276 | 3.0 | 8.0 | 0.00 | 0.00 | 0.00 | 37 | 1014.0 |
| 20260503184333 | 71 | 321 | 3.0 | 8.0 | 0.00 | 0.00 | 0.00 | 35 | 1014.1 |
| 20260503183829 | 70 | 311 | 7.0 | 8.0 | 0.00 | 0.00 | 0.00 | 37 | 1014.2 |
| 20260503183326 | 70 | 212 | 5.0 | 13.0 | 0.00 | 0.00 | 0.00 | 38 | 1014.2 |
| 20260503182823 | 71 | 313 | 3.0 | 9.0 | 0.00 | 0.00 | 0.00 | 36 | 1014.1 |
| 20260503182323 | 71 | 340 | 3.0 | 8.0 | 0.00 | 0.00 | 0.00 | 34 | 1014.0 |
| 20260503181819 | 71 | 1 | 6.0 | 13.0 | 0.00 | 0.00 | 0.00 | 33 | 1014.4 |
| 20260503181316 | 70 | 276 | 3.0 | 6.0 | 0.00 | 0.00 | 0.00 | 37 | 1014.3 |
| 20260503180813 | 70 | 325 | 9.0 | 13.0 | 0.00 | 0.00 | 0.00 | 36 | 1014.4 |
| 20260503180311 | 70 | 342 | 9.0 | 10.0 | 0.00 | 0.00 | 0.00 | 35 | 1014.6 |
| 20260503175807 | 70 | 344 | 5.0 | 9.0 | 0.00 | 0.00 | 0.00 | 34 | 1014.6 |
| 20260503175305 | 70 | 187 | 2.0 | 3.0 | 0.00 | 0.00 | 0.00 | 44 | 1014.5 |
| 20260503174806 | 70 | 14 | 4.0 | 7.0 | 0.00 | 0.00 | 0.00 | 38 | 1014.9 |
| 20260503174304 | 70 | 290 | 4.0 | 7.0 | 0.00 | 0.00 | 0.00 | 37 | 1014.8 |
| 20260503173759 | 69 | 184 | 2.0 | 7.0 | 0.00 | 0.00 | 0.00 | 36 | 1014.8 |
| 20260503173255 | 69 | 301 | 9.0 | 11.0 | 0.00 | 0.00 | 0.00 | 36 | 1014.9 |
| 20260503172752 | 69 | 296 | 7.0 | 8.0 | 0.00 | 0.00 | 0.00 | 39 | 1015.0 |
| 20260503172250 | 68 | 347 | 12.0 | 13.0 | 0.00 | 0.00 | 0.00 | 36 | 1015.1 |
| 20260503171746 | 69 | 171 | 5.0 | 8.0 | 0.00 | 0.00 | 0.00 | 44 | 1014.9 |
| 20260503171243 | 69 | 323 | 3.0 | 7.0 | 0.00 | 0.00 | 0.00 | 40 | 1015.0 |
| 20260503170740 | 68 | 174 | 5.0 | 11.0 | 0.00 | 0.00 | 0.00 | 41 | 1015.2 |
| 20260503170237 | 67 | 359 | 5.0 | 11.0 | 0.00 | 0.00 | 0.00 | 39 | 1015.0 |
| 20260503160159 | 64 | 144 | 2.0 | 6.0 | 0.00 | 0.00 | 0.00 | 45 | 1015.2 |